Probability
35 35 13 6 0 0 0 0 0 0 0 0 0 0 0 0 0 0 0 0 10 10 13 39 42 42 42 42 45 55 55 58 55 55 55 45 48 52 45 35 42 45 39 42 35 32 26 32 29
29 23 10 0 0 0 0 0 0 0 0 0 0 3 3 0 0 0 0 6 10 13 13 23 48 42 48 48 45 45 52 55 48 52 48 45 45 48 42 35 39 39 42 35 29 32 26 23 16
32 19 3 0 0 0 0 0 0 0 0 0 0 0 0 3 0 0 0 6 13 13 13 39 48 45 42 39 48 45 48 48 45 45 42 42 39 39 39 35 29 32 29 23 23 26 19 16 23
0 3 0 0 0 0 0 0 0 0 0 0 3 3 3 3 3 0 3 10 13 13 19 42 48 42 42 35 42 42 42 45 42 42 42 32 23 29 35 35 32 32 23 19 16 19 19 26 23
0 0 0 0 0 0 0 0 0 0 0 0 3 3 3 0 0 3 10 13 13 16 19 32 48 45 45 42 39 39 39 35 35 35 39 32 26 23 26 26 26 23 19 16 19 19 19 23 23
0 0 0 0 0 0 0 0 0 0 0 0 0 0 0 0 0 3 10 6 6 16 19 29 45 48 45 42 29 29 35 26 26 23 19 16 19 19 23 23 26 26 16 19 23 23 23 23 23
0 0 0 0 0 0 0 0 0 0 0 0 0 0 0 0 0 3 6 6 6 10 16 19 32 42 45 45 35 32 23 26 23 19 19 16 16 16 19 26 26 23 16 19 16 19 19 23 26
0 0 0 0 0 0 0 0 0 0 0 0 0 0 0 0 0 3 6 6 6 6 13 16 13 13 16 26 39 29 29 29 26 19 13 13 16 13 19 19 16 19 13 10 13 13 13 16 23
0 0 0 0 0 0 0 0 0 0 0 0 0 0 3 0 0 3 6 6 6 6 10 10 6 6 6 6 19 19 16 16 13 10 13 6 0 0 3 10 13 10 13 10 13 10 10 10 10
0 0 0 0 0 0 0 0 0 0 0 0 0 0 3 3 0 0 3 6 6 6 6 10 6 6 3 3 13 13 13 3 0 0 0 0 0 0 3 6 13 10 6 3 10 6 3 3 3
0 0 0 0 0 0 0 0 0 0 0 0 0 0 0 3 0 0 0 0 3 10 10 10 10 3 3 3 3 3 0 0 0 0 0 0 0 0 0 0 0 0 3 3 0 0 0 0 0
0 0 0 0 0 0 0 0 0 0 0 0 0 0 0 0 0 0 0 0 3 6 10 10 10 6 3 3 3 3 0 0 0 0 0 0 0 0 0 0 0 0 0 0 0 0 0 0 0
0 0 0 0 0 0 0 0 0 0 0 0 0 0 0 0 0 0 0 3 3 3 6 6 6 6 6 3 3 3 0 0 0 0 0 0 0 0 0 0 0 0 0 0 0 0 0 0 0
0 0 0 0 0 0 0 0 0 0 0 0 0 0 0 0 0 0 0 0 0 0 0 3 6 6 6 3 3 0 0 0 0 0 0 0 0 0 0 0 0 0 0 0 0 0 0 0 0
0 0 0 0 0 0 0 0 0 0 0 0 0 0 0 0 0 0 0 0 0 0 0 0 6 6 6 3 3 0 0 0 0 0 0 0 0 0 0 0 0 0 0 0 0 0 0 0 0
0 0 0 0 0 0 0 0 0 0 0 0 0 0 0 0 0 0 0 0 0 0 0 0 3 6 6 6 6 3 0 0 0 0 0 0 0 0 0 0 0 0 0 0 0 0 0 0 0
0 0 0 0 0 0 0 0 0 0 0 0 0 0 0 0 0 0 0 0 0 0 0 0 0 3 6 6 6 3 0 3 0 0 0 0 0 0 0 0 0 0 0 0 0 0 0 0 0
0 0 0 0 0 0 0 0 0 0 0 0 0 0 0 0 0 0 0 0 0 0 0 0 0 3 3 3 3 3 3 0 0 0 0 0 0 0 0 0 0 0 0 0 0 0 0 0 0
0 0 0 0 0 0 0 0 0 0 0 0 0 0 0 0 0 0 0 3 3 0 0 0 0 0 3 0 0 0 3 3 0 0 0 0 0 0 0 0 0 0 0 0 0 0 0 0 0
0 0 0 0 0 0 0 0 0 0 0 0 0 0 0 0 0 0 0 3 3 3 0 0 0 0 0 3 0 0 0 0 0 0 0 0 0 0 0 0 0 0 0 0 0 0 0 0 0
0 0 0 0 0 0 0 0 0 0 0 0 0 3 0 0 0 0 0 0 0 3 3 3 0 0 0 0 0 0 0 0 0 0 0 0 0 0 0 0 0 0 0 0 0 0 0 0 0
0 0 0 0 0 0 0 0 0 0 0 0 3 3 3 0 0 0 0 0 0 0 0 3 3 3 3 3 0 0 0 0 0 0 3 0 0 0 0 0 0 0 0 0 0 0 0 0 0
0 0 0 0 0 0 0 0 0 0 0 0 0 0 0 0 0 0 0 0 0 0 0 0 3 3 3 3 3 3 0 0 0 0 0 3 3 3 0 0 0 0 0 0 0 0 0 0 0
0 0 0 0 0 0 0 0 0 0 0 0 0 0 0 0 0 0 0 0 0 0 0 0 0 3 3 3 3 3 0 0 0 0 3 3 3 3 0 0 0 0 0 0 0 0 0 0 0
0 0 0 0 0 0 0 0 0 0 0 0 0 0 0 0 0 0 0 0 0 0 0 0 0 0 0 3 3 3 3 0 0 3 3 3 3 3 0 0 0 0 0 0 0 0 0 0 0
0 0 0 0 0 0 0 0 0 0 0 0 0 0 0 0 0 0 0 0 0 0 0 0 0 0 0 0 3 3 3 3 3 3 3 3 3 3 3 0 0 0 0 0 0 0 0 0 0
0 0 0 0 0 0 0 0 0 0 0 0 0 0 0 0 0 0 0 0 0 0 0 0 0 0 0 0 0 0 3 3 3 3 3 3 0 0 0 0 0 0 0 0 0 0 0 0 0
0 0 0 0 0 0 0 0 0 0 0 0 0 0 0 0 0 0 0 0 0 0 0 0 0 0 0 0 0 0 3 3 3 3 3 3 0 3 0 0 3 3 0 0 0 0 0 0 0
0 0 0 0 0 0 0 0 0 0 0 0 0 0 0 0 0 0 0 0 0 0 0 0 0 0 0 0 0 0 0 0 0 3 3 3 0 3 3 0 0 3 0 0 0 0 0 0 0
0 0 0 0 0 0 0 0 0 0 0 0 0 0 0 0 0 0 0 0 0 0 0 0 0 0 0 0 0 0 0 0 0 0 3 3 3 3 0 0 0 0 0 0 0 0 0 0 0
Height
5873 5873 5874 5875 5876 5875 5875 5875 5875 5875 5875 5875 5876 5876 5876 5877 5878 5880 5878 5876 5876 5876 5876 5875 5875 5875 5875 5875 5875 5875 5875 5875 5875 5875 5875 5874 5874 5873 5873 5872 5872 5871 5870 5870 5870 5869 5869 5869 5869
5873 5873 5875 5875 5874 5875 5875 5875 5875 5875 5875 5875 5875 5876 5876 5876 5876 5876 5876 5876 5875 5875 5875 5875 5875 5875 5875 5875 5875 5875 5875 5875 5874 5874 5874 5874 5873 5873 5872 5871 5871 5870 5870 5869 5869 5869 5868 5868 5868
5873 5874 5875 5874 5874 5875 5875 5874 5874 5875 5875 5875 5875 5875 5875 5875 5875 5875 5875 5875 5875 5875 5875 5875 5875 5875 5874 5874 5874 5874 5874 5874 5874 5874 5873 5873 5872 5872 5871 5871 5870 5869 5869 5868 5868 5868 5868 5867 5867
5874 5874 5875 5874 5874 5874 5874 5874 5874 5874 5874 5875 5874 5874 5874 5875 5875 5874 5874 5874 5874 5874 5874 5874 5874 5874 5874 5874 5873 5873 5873 5873 5873 5873 5872 5871 5871 5871 5870 5870 5869 5869 5868 5868 5867 5867 5867 5866 5866
5873 5874 5874 5873 5873 5874 5873 5873 5874 5874 5874 5874 5874 5874 5874 5874 5874 5874 5873 5873 5873 5873 5874 5874 5874 5873 5873 5873 5873 5873 5873 5872 5872 5871 5870 5870 5870 5870 5869 5869 5868 5867 5867 5866 5866 5866 5865 5865 5864
5873 5873 5873 5873 5873 5873 5873 5873 5873 5873 5873 5873 5873 5873 5873 5873 5873 5873 5872 5872 5872 5872 5873 5873 5873 5873 5873 5872 5872 5872 5872 5872 5871 5871 5870 5870 5869 5869 5868 5867 5867 5867 5866 5865 5865 5864 5864 5863 5863
5873 5872 5872 5873 5872 5872 5872 5872 5872 5872 5872 5872 5872 5872 5872 5872 5872 5872 5872 5871 5871 5871 5871 5871 5872 5872 5872 5871 5871 5871 5871 5871 5870 5870 5869 5869 5868 5867 5867 5866 5866 5865 5865 5864 5863 5863 5862 5861 5861
5872 5873 5872 5872 5872 5872 5872 5871 5871 5871 5871 5871 5871 5871 5871 5871 5871 5871 5871 5871 5870 5870 5870 5870 5870 5870 5870 5870 5870 5870 5870 5869 5869 5869 5868 5867 5867 5866 5866 5865 5864 5864 5863 5862 5862 5861 5860 5859 5859
5871 5873 5871 5871 5871 5871 5871 5871 5871 5870 5871 5870 5870 5871 5871 5870 5870 5870 5870 5870 5870 5869 5869 5869 5869 5869 5869 5869 5869 5868 5868 5868 5867 5867 5866 5866 5865 5865 5864 5863 5863 5862 5861 5860 5860 5859 5858 5857 5857
5871 5871 5871 5870 5870 5870 5870 5870 5870 5869 5870 5870 5869 5870 5869 5869 5869 5869 5869 5869 5868 5868 5868 5868 5868 5867 5867 5867 5867 5867 5867 5866 5865 5865 5865 5864 5863 5863 5862 5861 5860 5860 5859 5858 5858 5857 5856 5856 5855
5870 5870 5869 5869 5869 5869 5869 5869 5869 5868 5869 5869 5869 5868 5868 5868 5868 5868 5868 5868 5867 5867 5867 5867 5866 5866 5865 5865 5865 5865 5865 5864 5864 5863 5863 5862 5861 5860 5860 5859 5858 5857 5857 5856 5855 5854 5854 5853 5853
5869 5868 5868 5868 5868 5868 5868 5868 5868 5867 5868 5868 5867 5867 5867 5867 5867 5866 5866 5866 5866 5866 5865 5865 5865 5864 5864 5863 5863 5863 5863 5862 5862 5861 5860 5860 5859 5858 5857 5857 5856 5855 5854 5853 5853 5852 5852 5851 5850
5867 5867 5867 5867 5866 5866 5866 5866 5866 5866 5866 5866 5866 5866 5865 5865 5865 5865 5864 5864 5864 5864 5864 5863 5863 5862 5862 5861 5861 5860 5860 5860 5859 5859 5858 5857 5857 5856 5855 5854 5853 5853 5852 5851 5850 5850 5849 5848 5848
5866 5866 5866 5865 5865 5865 5865 5865 5865 5864 5864 5864 5864 5864 5864 5864 5863 5863 5863 5862 5862 5862 5862 5861 5861 5860 5860 5859 5858 5858 5857 5857 5856 5856 5855 5855 5854 5853 5852 5852 5851 5850 5849 5848 5848 5847 5846 5846 5845
5865 5865 5865 5864 5863 5863 5863 5863 5863 5863 5862 5863 5862 5862 5862 5862 5862 5861 5861 5860 5860 5860 5860 5859 5859 5858 5858 5857 5856 5855 5855 5854 5854 5853 5853 5852 5851 5850 5850 5849 5848 5847 5847 5846 5845 5844 5844 5843 5842
5863 5863 5863 5862 5862 5861 5863 5862 5861 5861 5861 5860 5860 5860 5860 5860 5860 5859 5859 5858 5858 5858 5857 5857 5856 5856 5855 5854 5853 5853 5852 5851 5851 5850 5849 5848 5848 5847 5846 5846 5845 5844 5844 5843 5842 5842 5841 5840 5839
5861 5861 5860 5861 5860 5859 5859 5859 5859 5858 5858 5858 5858 5858 5858 5858 5858 5857 5857 5856 5856 5855 5855 5854 5854 5853 5852 5852 5851 5850 5849 5848 5847 5847 5846 5845 5844 5844 5843 5843 5842 5841 5840 5840 5839 5838 5838 5837 5836
5859 5858 5858 5858 5857 5856 5856 5856 5856 5856 5856 5856 5856 5856 5856 5856 5856 5855 5854 5854 5853 5852 5852 5852 5851 5850 5849 5848 5848 5847 5846 5845 5844 5843 5842 5842 5841 5840 5839 5839 5838 5838 5837 5836 5835 5835 5834 5833 5832
5856 5855 5855 5855 5854 5854 5853 5853 5854 5853 5853 5853 5853 5853 5853 5853 5853 5852 5852 5851 5850 5850 5849 5848 5848 5847 5846 5845 5844 5843 5842 5841 5840 5839 5838 5838 5837 5836 5835 5835 5834 5833 5833 5832 5831 5831 5830 5829 5828
5853 5852 5852 5852 5851 5851 5851 5851 5851 5850 5850 5850 5850 5850 5850 5850 5849 5849 5848 5848 5847 5846 5845 5844 5844 5843 5842 5841 5840 5839 5838 5837 5836 5835 5834 5833 5832 5831 5831 5830 5829 5829 5828 5828 5827 5826 5825 5824 5823
5850 5850 5849 5849 5849 5848 5848 5848 5848 5847 5847 5847 5847 5847 5847 5846 5846 5845 5844 5844 5843 5842 5841 5840 5839 5838 5838 5837 5836 5835 5834 5832 5831 5830 5829 5828 5827 5827 5826 5825 5824 5824 5823 5822 5822 5821 5820 5820 5818
5847 5847 5846 5846 5845 5845 5845 5845 5845 5844 5844 5844 5844 5843 5842 5842 5842 5841 5840 5839 5838 5837 5836 5836 5834 5834 5833 5831 5830 5830 5828 5827 5826 5825 5824 5823 5822 5821 5820 5819 5819 5818 5817 5817 5816 5815 5815 5814 5813
5844 5843 5843 5842 5842 5842 5841 5841 5842 5840 5840 5840 5839 5839 5838 5837 5837 5836 5835 5834 5833 5832 5831 5830 5829 5828 5827 5826 5825 5824 5823 5822 5821 5820 5818 5818 5817 5816 5815 5814 5813 5812 5811 5810 5810 5809 5809 5808 5807
5840 5840 5840 5839 5838 5838 5838 5837 5837 5836 5836 5835 5835 5834 5833 5832 5831 5830 5829 5828 5827 5826 5825 5824 5824 5823 5821 5820 5819 5818 5817 5816 5815 5814 5813 5812 5811 5810 5809 5808 5806 5805 5805 5804 5803 5802 5802 5801 5801
5837 5837 5836 5835 5834 5834 5834 5832 5833 5832 5831 5830 5830 5829 5829 5827 5826 5825 5824 5823 5822 5820 5819 5818 5817 5816 5815 5814 5813 5812 5811 5810 5809 5808 5807 5806 5805 5804 5803 5801 5800 5799 5798 5797 5796 5795 5794 5794 5793
5833 5833 5833 5832 5830 5830 5829 5828 5829 5827 5826 5826 5825 5824 5823 5822 5821 5820 5818 5817 5816 5815 5813 5812 5811 5810 5809 5807 5806 5805 5804 5803 5802 5801 5800 5799 5798 5797 5795 5794 5793 5792 5790 5789 5788 5788 5787 5786 5786
5828 5828 5828 5827 5825 5824 5823 5823 5823 5822 5821 5820 5819 5818 5817 5816 5815 5814 5813 5811 5810 5809 5807 5806 5804 5803 5802 5801 5799 5798 5797 5796 5795 5794 5793 5792 5791 5789 5788 5787 5785 5784 5783 5782 5781 5780 5779 5778 5778
5824 5824 5823 5822 5820 5818 5818 5818 5818 5817 5816 5815 5813 5812 5811 5810 5809 5808 5806 5805 5803 5802 5800 5798 5797 5796 5795 5793 5792 5791 5789 5788 5787 5787 5785 5784 5783 5781 5780 5779 5777 5776 5775 5774 5773 5772 5771 5770 5770
5820 5819 5817 5816 5815 5814 5812 5815 5812 5811 5810 5809 5808 5806 5805 5804 5803 5801 5799 5797 5795 5794 5792 5791 5790 5788 5787 5786 5784 5783 5782 5781 5780 5779 5778 5776 5775 5773 5771 5770 5769 5768 5767 5766 5765 5764 5763 5762 5762
5814 5813 5812 5811 5809 5808 5806 5809 5805 5804 5803 5802 5801 5800 5798 5797 5795 5793 5792 5790 5788 5786 5785 5783 5782 5780 5779 5778 5777 5775 5774 5773 5772 5771 5769 5768 5766 5765 5763 5762 5761 5760 5759 5758 5757 5756 5755 5754 5753
Wind_Speed
2 2 2 2 3 3 2 2 3 3 2 3 2 3 2 1 2 1 1 2 1 1 1 1 2 2 1 2 2 2 2 2 2 2 3 3 3 3 3 3 3 2 3 4 4 4 4 5 5
2 2 2 2 2 3 2 2 3 3 3 3 3 2 2 2 2 1 2 2 1 1 1 1 2 2 1 2 2 2 2 2 2 3 4 4 4 4 4 4 4 4 4 4 4 4 4 4 4
2 2 2 2 2 3 3 2 2 3 3 2 2 2 3 3 3 2 2 1 1 1 1 2 2 2 3 2 2 2 2 2 3 3 4 5 4 4 4 4 5 5 5 4 5 5 5 5 6
2 2 2 3 3 2 2 2 2 1 1 2 2 3 4 4 3 2 2 1 1 1 2 2 2 2 3 2 2 3 3 3 4 4 5 5 5 5 5 5 5 6 5 5 5 5 6 6 6
2 3 3 3 3 2 1 1 0 0 1 1 2 2 3 3 3 2 2 2 2 2 2 3 3 3 3 3 3 3 3 4 5 5 5 4 5 5 6 6 5 5 5 6 6 6 6 7 7
2 3 3 3 3 1 0 0 0 1 2 2 2 2 2 3 3 3 2 3 3 3 3 3 3 3 3 3 4 4 4 4 5 4 4 4 5 5 6 6 6 6 7 7 7 7 8 8 8
3 4 4 3 2 2 1 1 1 2 2 2 2 2 2 2 3 3 3 3 4 4 4 4 4 4 4 5 5 5 5 5 5 5 6 6 6 6 6 6 6 7 7 7 8 8 8 8 8
3 3 4 4 3 3 2 2 2 2 2 2 2 3 3 3 3 3 3 3 4 5 5 5 5 5 5 5 6 6 6 6 6 6 6 6 6 6 7 6 6 7 8 8 8 8 8 9 9
3 3 3 3 3 3 3 3 3 3 3 3 3 3 3 4 3 4 4 4 5 5 5 5 5 5 5 5 6 6 6 6 6 7 6 6 7 7 7 7 8 8 8 8 9 8 8 8 8
3 3 3 3 4 4 4 3 4 3 3 3 3 3 4 4 4 4 5 5 5 5 5 5 6 6 6 6 6 6 7 6 7 7 7 8 8 8 8 8 9 9 9 9 9 9 8 8 8
4 3 3 3 3 4 4 3 3 3 3 3 4 4 3 4 4 5 5 5 5 6 6 6 6 7 7 7 7 7 7 7 7 8 8 8 9 9 9 9 9 9 9 10 9 9 9 9 9
4 4 3 3 4 3 4 3 3 4 4 4 4 5 4 5 5 6 6 6 6 6 6 6 6 7 7 7 7 8 8 8 8 8 9 9 9 9 9 9 9 9 10 10 9 10 10 9 10
4 4 3 3 3 3 4 4 4 5 5 4 4 5 5 6 6 6 7 7 6 6 7 6 7 8 8 8 8 9 8 8 8 9 9 9 10 10 10 10 10 10 10 10 9 10 10 11 11
5 5 4 4 4 4 5 5 5 5 6 5 5 6 6 6 6 7 7 7 7 6 7 8 8 8 8 8 9 9 9 9 9 9 9 9 10 10 10 10 11 11 10 10 10 11 11 11 11
6 6 6 5 6 6 6 6 6 6 6 6 6 6 6 6 7 7 7 7 7 7 7 8 8 9 9 9 10 10 10 10 10 10 10 10 10 11 11 12 12 12 11 11 11 11 11 11 12
7 7 7 7 7 7 7 6 7 7 7 7 7 7 7 7 7 7 8 8 7 8 8 8 9 10 10 10 10 11 11 11 11 11 12 11 11 12 12 12 13 12 12 12 11 11 11 12 13
7 8 8 8 7 7 7 7 7 7 7 7 8 7 7 7 7 8 8 8 8 9 9 9 10 11 11 11 11 12 13 13 13 13 13 12 12 12 12 13 13 13 13 13 13 13 13 13 14
8 8 8 8 7 7 6 6 7 7 7 8 8 8 9 8 8 9 9 9 9 10 10 11 12 12 12 12 13 13 14 14 14 14 14 14 14 14 14 14 14 15 14 14 15 15 15 15 15
9 9 8 8 8 8 7 7 7 8 8 8 9 9 9 9 9 10 10 11 11 11 11 12 13 13 13 13 14 15 15 15 16 16 15 15 16 16 16 16 16 16 16 16 16 16 16 16 16
8 8 8 7 8 8 7 8 8 8 8 8 9 9 9 10 11 11 11 11 12 13 13 13 14 14 14 15 16 16 17 17 17 17 17 17 17 17 17 18 18 18 18 18 17 17 17 17 17
7 7 7 8 8 8 9 8 9 9 9 9 10 10 10 11 12 13 13 13 14 14 14 15 16 16 17 17 17 18 18 18 18 18 19 18 18 18 19 19 19 20 20 20 19 18 18 18 18
9 8 9 9 10 9 9 9 9 10 10 10 11 11 11 12 13 14 15 16 16 16 16 17 17 17 18 18 18 18 19 19 18 19 19 20 19 20 20 20 21 21 21 21 21 20 20 20 20
10 9 10 9 10 10 11 11 10 11 11 11 11 12 12 13 14 16 16 17 18 18 18 18 18 19 19 20 20 20 19 20 20 20 20 20 20 20 20 21 22 22 23 22 22 22 22 22 22
10 10 10 11 11 11 13 13 12 11 12 13 14 13 14 15 16 18 18 18 19 20 20 20 20 20 20 21 21 22 21 21 21 21 21 21 22 22 22 22 23 23 23 23 24 24 24 23 23
11 12 12 13 13 13 14 14 13 13 13 14 15 15 16 17 18 19 19 20 20 21 21 21 21 21 21 22 22 22 22 22 22 22 22 23 23 23 23 23 24 24 24 24 24 24 24 24 24
12 13 13 14 15 15 16 16 15 15 15 16 17 17 17 18 19 19 20 20 20 21 22 23 23 22 23 23 23 23 23 24 24 24 24 24 25 25 25 25 25 25 25 25 25 25 25 25 25
13 14 15 16 17 18 18 18 17 17 17 18 19 19 19 20 20 20 21 22 22 23 23 24 24 23 23 24 24 25 25 25 25 25 25 25 25 26 26 26 26 26 26 26 26 26 26 26 26
14 15 16 17 18 19 19 19 18 18 19 20 20 20 21 20 20 21 22 23 23 24 24 24 25 25 25 25 26 25 25 26 26 26 27 26 26 27 27 27 27 27 26 26 26 26 26 27 26
16 16 17 19 20 21 22 20 20 20 21 21 22 22 22 22 22 22 23 24 24 25 25 25 26 26 25 25 26 26 26 26 26 26 27 27 27 27 27 28 28 27 26 26 26 26 26 26 26
18 19 19 20 22 23 23 22 21 22 22 23 23 23 23 23 23 24 24 25 25 26 26 26 26 26 26 27 27 27 27 27 27 27 27 27 28 28 27 27 28 27 27 26 26 26 26 26 26
Wind_Direction
200 201 188 192 195 205 206 207 191 178 202 207 197 200 220 231 238 263 336 345 341 360 19 36 2 346 327 306 294 306 292 284 288 295 303 305 311 311 309 303 292 291 286 283 276 276 268 256 253
219 220 206 227 220 232 211 177 169 170 192 208 211 218 231 249 247 281 327 321 319 339 11 6 343 340 306 296 288 273 284 295 292 293 295 294 294 300 300 292 291 291 289 290 290 289 288 278 267
214 221 223 234 232 222 192 179 174 162 181 199 215 227 243 244 252 276 301 304 320 326 321 314 315 315 316 309 302 294 292 294 298 294 293 292 291 292 297 291 288 287 290 292 291 292 284 282 279
204 216 227 238 247 233 208 186 182 166 192 211 226 251 255 248 246 265 295 293 294 294 287 278 276 291 303 300 309 311 306 304 302 305 305 291 290 293 292 297 291 288 292 291 295 293 284 281 278
224 233 237 242 249 230 213 167 142 192 242 243 257 273 267 255 240 259 274 265 272 278 271 272 275 280 285 282 289 290 295 301 307 310 312 299 292 295 302 296 298 294 289 293 294 293 291 290 283
248 244 249 251 245 235 181 107 249 270 273 289 292 281 273 268 250 263 263 270 274 273 264 266 272 279 283 279 284 292 290 293 299 302 301 304 289 295 307 302 297 294 294 294 294 294 291 291 286
254 255 255 264 268 272 264 264 283 302 306 296 295 285 281 283 265 274 275 284 276 268 265 265 272 282 279 276 277 282 284 286 291 294 299 300 297 296 296 298 298 298 298 297 295 296 292 287 284
258 266 265 264 265 277 285 286 278 276 285 285 284 293 291 282 284 291 285 279 279 279 276 271 275 278 278 276 281 284 283 285 287 291 296 299 299 298 298 296 297 294 293 293 295 296 293 290 284
263 266 270 266 263 267 278 284 282 276 282 295 297 303 302 299 295 304 302 292 286 285 280 276 278 283 280 279 278 280 282 284 286 288 290 291 293 294 295 294 296 295 295 294 295 295 297 293 286
270 272 275 269 264 267 272 280 280 285 294 302 304 310 303 303 304 308 310 311 299 288 282 277 278 281 281 281 279 280 279 278 284 287 290 292 293 293 293 292 293 295 293 294 292 290 293 290 286
281 282 283 282 275 282 288 287 277 278 292 299 302 303 306 306 303 306 308 307 304 299 298 298 287 282 278 280 281 279 277 275 282 286 287 289 293 295 296 297 296 294 294 293 290 290 289 287 284
282 287 296 297 300 292 293 290 282 275 279 289 294 297 300 300 302 303 303 302 299 300 302 295 295 294 289 289 290 285 283 282 282 287 287 288 292 293 292 294 294 294 294 291 290 288 286 285 282
279 281 283 291 294 290 286 287 287 278 279 287 294 296 298 301 301 303 303 302 301 303 304 303 304 302 298 295 294 292 289 286 279 278 282 285 288 287 288 288 290 293 294 293 291 287 284 284 285
278 278 278 278 276 283 285 284 283 280 283 288 291 298 301 299 299 300 302 304 305 301 301 303 304 301 299 295 295 293 290 288 284 280 278 280 282 283 286 287 289 292 293 293 293 292 288 288 286
272 274 281 283 283 282 282 280 279 279 281 285 289 295 300 304 303 299 300 304 304 300 300 301 300 300 300 299 298 296 294 290 288 287 284 281 280 280 283 285 287 289 289 290 291 291 290 288 288
270 272 279 284 282 280 280 275 272 273 274 279 284 287 291 297 301 298 299 300 300 299 299 298 298 302 303 301 301 300 297 293 289 288 288 287 286 287 285 284 285 287 288 288 287 287 288 288 287
273 274 279 283 278 273 277 279 270 263 268 275 280 283 287 290 294 295 296 296 296 295 294 296 296 298 299 297 299 299 298 296 293 289 286 286 286 286 285 285 285 285 286 286 286 286 286 287 286
277 274 278 283 279 273 276 273 269 269 272 276 277 280 283 287 290 291 294 294 295 294 292 292 293 294 294 296 298 298 297 294 293 290 285 284 283 283 281 282 283 283 283 283 284 285 284 284 284
277 278 277 281 280 278 276 273 274 274 273 274 271 275 280 285 288 289 290 293 293 292 291 290 290 290 291 294 296 297 295 292 290 289 286 284 282 282 281 280 282 281 281 281 282 283 283 282 282
276 279 278 277 280 281 281 280 278 270 272 272 270 275 281 284 286 286 287 290 289 290 290 288 287 287 288 290 292 293 293 290 288 288 287 285 283 282 281 281 281 280 280 279 279 281 282 284 283
279 282 284 280 281 281 281 277 277 269 269 270 274 280 283 285 285 286 286 286 286 285 287 287 286 286 286 287 289 291 291 290 289 289 287 285 284 283 281 279 279 279 279 279 279 279 279 281 283
275 277 278 279 280 281 277 277 277 273 276 278 278 280 282 284 283 285 287 286 285 284 284 286 286 285 284 286 287 288 290 291 289 288 286 284 284 283 283 281 280 279 278 277 276 277 278 278 279
274 273 273 275 277 278 277 280 281 279 277 282 281 279 281 284 282 283 284 286 287 285 283 285 284 284 284 284 285 286 288 290 289 287 287 286 285 285 284 283 283 281 278 276 275 274 275 276 276
278 275 275 274 274 276 282 285 283 281 280 283 284 282 282 285 285 284 284 286 286 284 284 284 286 286 286 285 284 284 286 287 287 286 285 285 285 286 286 285 284 282 280 278 276 275 274 274 274
274 274 275 275 273 277 283 284 283 283 282 283 283 284 284 285 287 287 286 287 285 284 285 286 286 286 286 286 284 284 284 285 285 285 284 283 284 285 285 286 285 283 281 279 278 277 275 274 273
272 272 276 278 279 281 281 280 283 282 283 283 283 285 287 286 286 286 284 284 284 285 286 286 286 284 284 284 284 284 283 284 283 283 283 283 283 283 284 284 284 283 281 280 279 278 276 275 274
270 272 276 278 280 282 281 283 282 283 282 283 285 286 288 288 288 287 285 283 285 287 286 284 282 282 283 283 282 283 282 282 282 283 283 283 284 283 282 282 282 281 280 280 278 277 277 275 273
273 276 277 278 281 282 282 283 287 285 284 285 286 287 288 289 289 288 286 286 286 287 287 284 281 282 282 283 283 283 284 284 284 284 285 284 283 283 282 280 279 279 279 279 278 277 277 277 275
274 277 278 279 281 283 285 286 286 286 285 285 285 285 286 289 290 287 286 285 287 285 285 286 283 281 280 281 281 282 284 284 283 283 284 285 284 282 281 280 279 277 277 278 278 278 278 277 275
274 278 280 280 282 284 287 286 284 284 283 283 284 285 286 288 288 286 285 285 286 285 283 285 284 283 283 282 282 283 283 284 283 283 284 284 284 284 282 279 279 277 277 277 276 277 277 277 275